Location: Unspecified
(0.0000°N, 0.0000°E)
Time: 07:38:12
(UTC+00:00)

SR - Pass Details

Date: 19 December 2018
Orbit: 584 x 872 km, 66.7° (Epoch: 18 March)

Event Time Altitude Azimuth Distance (km) Brightness Sun altitude
Rises 11:26:52 0° 340° (NNW) 2,817 ? 65.5°
Reaches altitude 10° 11:29:06 10° 341° (NNW) 1,903 ? 65.6°
Maximum altitude 11:33:20 88° 69° (ENE) 586 ? 65.9°
Drops below altitude 10° 11:37:36 10° 160° (SSE) 1,914 ? 66.1°
Sets 11:39:51 0° 160° (SSE) 2,835 ? 66.2°
